Tallahassee, FL

7:25 PM EST on February 06, 2016 (GMT -0500)
Tallahassee Regional

Weather History for KTLH - April, 2014

Change the Weather History Date:

Saturday, April 5, 2014

  Actual Average Record
Temperature  
Mean Temperature 74 °F 64 °F  
Max Temperature 83 °F 78 °F 91 °F (1988)
Min Temperature 65 °F 50 °F 32 °F (1987)
Degree Days  
Heating Degree Days 0    
Month to date heating degree days 5  
Since 1 July heating degree days 1322  
Cooling Degree Days 9    
Month to date cooling degree days 21  
Year to date cooling degree days 45  
Growing Degree Days 23 (Base 50)    
Moisture  
Dew Point 64 °F    
Average Humidity 74    
Maximum Humidity 93    
Minimum Humidity 54    
Precipitation  
Precipitation 0.02 in 0.12 in 2.20 in (2008)
Month to date precipitation 0.02 0.64  
Year to date precipitation 18.30 15.77  
Sea Level Pressure  
Sea Level Pressure 30.00 in    
Wind  
Wind Speed 4 mph (South)    
Max Wind Speed 14 mph    
Max Gust Speed 17 mph    
Visibility 10 miles    
Events Fog , Rain , Thunderstorm    
T = Trace of Precipitation, MM = Missing Value Source: NWS Daily Summary

Daily Weather History Graph

Daily Weather History Graph

Search for Another Location

Airport or City:

Trip Planner

Search our weather history database for the weather conditions in past years. The results will help you decide how hot, cold, wet, or windy it might be!

Date:

Astronomy

Apr. 05, 2014 Rise Set
Actual Time 7:21 AM EDT 7:58 PM EDT
Civil Twilight 6:57 AM EDT 8:23 PM EDT
Nautical Twilight 6:28 AM EDT 8:51 PM EDT
Astronomical Twilight 5:59 AM EDT 9:20 PM EDT
Moon 11:43 AM EDT (4/5) 12:53 AM EDT (4/5)
Length of Visible Light 13h 25m
Length of Day
12h 37m
Waxing Crescent, 34% of the Moon is Illuminated
Apr 5
Waxing Crescent
Apr 7
First Quarter
Apr 15
Full
Apr 22
Last Quarter
Apr 29
New

Hourly Weather History & Observations

Time (EDT) Temp. Heat Index Dew Point Humidity Pressure Visibility Wind Dir Wind Speed Gust Speed Precip Events Conditions
12:38 AM 71.6 °F - 64.4 °F 78% 29.99 in 10.0 mi WSW 3.5 mph - N/A   Overcast
12:53 AM 71.1 °F - 64.9 °F 81% 29.99 in 10.0 mi West 3.5 mph - N/A   Overcast
1:53 AM 71.1 °F - 64.9 °F 81% 30.00 in 10.0 mi WNW 3.5 mph - N/A   Overcast
2:20 AM 71.6 °F - 64.4 °F 78% 30.00 in 10.0 mi WNW 3.5 mph - N/A   Overcast
2:37 AM 71.6 °F - 64.4 °F 78% 30.00 in 10.0 mi Calm Calm - N/A   Overcast
2:53 AM 70.0 °F - 64.9 °F 84% 29.99 in 10.0 mi Calm Calm - N/A   Overcast
3:09 AM 69.8 °F - 64.4 °F 83% 29.99 in 10.0 mi Calm Calm - N/A   Overcast
3:16 AM 69.8 °F - 64.4 °F 83% 29.99 in 10.0 mi Calm Calm - N/A   Overcast
3:25 AM 69.8 °F - 64.4 °F 83% 30.00 in 10.0 mi Calm Calm - N/A   Overcast
3:33 AM 69.8 °F - 64.4 °F 83% 30.00 in 10.0 mi Calm Calm - N/A   Overcast
3:53 AM 70.0 °F - 64.9 °F 84% 30.00 in 10.0 mi NW 3.5 mph - N/A   Overcast
4:09 AM 69.8 °F - 64.4 °F 83% 29.99 in 10.0 mi NW 4.6 mph - N/A   Mostly Cloudy
4:21 AM 69.8 °F - 64.4 °F 83% 29.99 in 10.0 mi NNW 3.5 mph - N/A   Mostly Cloudy
4:53 AM 66.9 °F - 64.0 °F 90% 29.98 in 8.0 mi Calm Calm - N/A   Clear
5:53 AM 64.9 °F - 62.1 °F 90% 29.97 in 6.0 mi Calm Calm - N/A   Mostly Cloudy
6:34 AM 66.2 °F - 62.6 °F 88% 29.98 in 6.0 mi Calm Calm - N/A   Overcast
6:53 AM 66.9 °F - 62.1 °F 84% 29.99 in 10.0 mi Calm Calm - N/A Fog Patches of Fog
7:20 AM 66.2 °F - 62.6 °F 88% 29.99 in 10.0 mi Calm Calm - N/A Fog Patches of Fog
7:51 AM 68.0 °F - 62.6 °F 83% 29.98 in 10.0 mi East 4.6 mph - N/A   Overcast
7:53 AM 68.0 °F - 63.0 °F 84% 29.99 in 10.0 mi East 4.6 mph - N/A   Overcast
8:38 AM 69.8 °F - 62.6 °F 78% 30.01 in 10.0 mi East 5.8 mph - N/A   Overcast
8:53 AM 69.1 °F - 63.0 °F 81% 30.01 in 10.0 mi ESE 4.6 mph - N/A   Overcast
9:16 AM 69.8 °F - 62.6 °F 78% 30.02 in 10.0 mi Calm Calm - N/A   Overcast
9:53 AM 71.1 °F - 63.0 °F 75% 30.03 in 10.0 mi East 4.6 mph - N/A   Overcast
10:50 AM 75.2 °F - 60.8 °F 61% 30.04 in 10.0 mi East 4.6 mph - N/A   Mostly Cloudy
10:53 AM 73.9 °F - 61.0 °F 64% 30.04 in 10.0 mi ENE 3.5 mph - N/A   Mostly Cloudy
11:53 AM 75.9 °F - 62.1 °F 62% 30.04 in 10.0 mi ESE 4.6 mph - N/A   Overcast
12:53 PM 78.1 °F - 63.0 °F 60% 30.02 in 10.0 mi Calm Calm - N/A   Mostly Cloudy
1:53 PM 81.0 °F 82.5 °F 64.0 °F 56% 30.01 in 10.0 mi Variable 3.5 mph - N/A   Overcast
2:13 PM 82.4 °F 83.4 °F 62.6 °F 51% 30.01 in 10.0 mi Variable 5.8 mph - N/A   Mostly Cloudy
2:53 PM 81.0 °F 82.2 °F 63.0 °F 54% 29.99 in 10.0 mi South 8.1 mph - N/A   Overcast
3:53 PM 82.0 °F 83.4 °F 64.0 °F 54% 29.96 in 10.0 mi South 8.1 mph - N/A   Mostly Cloudy
4:53 PM 78.1 °F - 66.0 °F 66% 29.96 in 10.0 mi South 9.2 mph - N/A   Mostly Cloudy
5:53 PM 75.9 °F - 66.9 °F 74% 29.96 in 10.0 mi South 9.2 mph - 0.00 in   Scattered Clouds
6:37 PM 75.2 °F - 68.0 °F 78% 29.98 in 10.0 mi South 6.9 mph - N/A Thunderstorm Thunderstorm
6:53 PM 73.9 °F - 68.0 °F 82% 29.98 in 10.0 mi SSW 3.5 mph - N/A Thunderstorm Thunderstorm
7:53 PM 73.0 °F - 66.9 °F 81% 29.99 in 10.0 mi SSW 5.8 mph - N/A Thunderstorm Thunderstorm
8:33 PM 71.6 °F - 66.2 °F 83% 30.01 in 10.0 mi Calm Calm - 0.00 in Rain Light Rain
8:53 PM 72.0 °F - 66.9 °F 84% 30.01 in 10.0 mi Calm Calm - 0.00 in   Mostly Cloudy
9:53 PM 71.1 °F - 66.9 °F 87% 30.03 in 10.0 mi SW 3.5 mph - 0.00 in   Scattered Clouds
10:53 PM 70.0 °F - 66.0 °F 87% 30.03 in 10.0 mi SSW 4.6 mph - 0.00 in Rain Light Rain
11:53 PM 70.0 °F - 66.0 °F 87% 30.03 in 10.0 mi Calm Calm - 0.01 in Rain Light Rain